TimeCST,TemperatureF,Dew PointF,Humidity,Sea Level PressureIn,VisibilityMPH,Wind Direction,Wind SpeedMPH,Gust SpeedMPH,PrecipitationIn,Events,Conditions,WindDirDegrees,DateUTC
12:54 AM,33.1,25.0,72,30.20,10.0,Calm,Calm,-,N/A,,Clear,0,2011-11-08 06:54:00
1:54 AM,32.0,26.1,79,30.22,10.0,NNW,3.5,-,N/A,,Clear,330,2011-11-08 07:54:00
3:54 AM,34.0,25.0,70,30.21,10.0,Calm,Calm,-,N/A,,Clear,0,2011-11-08 09:54:00
4:54 AM,34.0,26.1,73,30.22,10.0,Calm,Calm,-,N/A,,Scattered Clouds,0,2011-11-08 10:54:00
6:54 AM,34.0,28.9,82,30.22,10.0,Calm,Calm,-,N/A,,Overcast,0,2011-11-08 12:54:00
7:54 AM,35.1,28.9,78,30.23,10.0,NNW,3.5,-,N/A,,Overcast,330,2011-11-08 13:54:00
8:54 AM,37.0,28.9,73,30.22,10.0,North,5.8,-,N/A,,Overcast,10,2011-11-08 14:54:00
9:54 AM,39.0,30.0,70,30.21,10.0,NNE,3.5,-,N/A,,Overcast,30,2011-11-08 15:54:00
10:39 AM,39.2,30.2,70,30.16,10.0,North,6.9,-,N/A,,Mostly Cloudy,10,2011-11-08 16:39:00
10:54 AM,39.9,28.9,65,30.19,10.0,NE,6.9,-,N/A,,Overcast,40,2011-11-08 16:54:00
11:54 AM,42.1,30.0,62,30.18,10.0,NNW,4.6,-,N/A,,Overcast,340,2011-11-08 17:54:00
12:54 PM,42.1,30.0,62,30.17,10.0,NNE,4.6,-,N/A,,Mostly Cloudy,20,2011-11-08 18:54:00
2:10 PM,42.8,30.2,61,30.11,10.0,NNE,5.8,-,N/A,,Scattered Clouds,30,2011-11-08 20:10:00
2:54 PM,43.0,30.9,62,30.15,10.0,NNE,5.8,-,N/A,,Partly Cloudy,30,2011-11-08 20:54:00
3:54 PM,42.1,30.0,62,30.16,10.0,NNE,4.6,-,N/A,,Partly Cloudy,20,2011-11-08 21:54:00
4:54 PM,41.0,30.0,65,30.17,10.0,NNE,3.5,-,N/A,,Partly Cloudy,30,2011-11-08 22:54:00
5:54 PM,39.9,30.0,68,30.17,10.0,NE,4.6,-,N/A,,Mostly Cloudy,40,2011-11-08 23:54:00
6:54 PM,39.0,30.9,73,30.18,10.0,NE,9.2,-,N/A,,Overcast,40,2011-11-09 00:54:00
7:54 PM,37.9,30.9,76,30.18,10.0,NE,5.8,-,N/A,,Mostly Cloudy,40,2011-11-09 01:54:00
8:54 PM,37.9,30.0,73,30.17,10.0,NNE,4.6,-,N/A,,Scattered Clouds,30,2011-11-09 02:54:00
9:54 PM,36.0,30.0,79,30.14,10.0,North,8.1,-,N/A,,Scattered Clouds,360,2011-11-09 03:54:00
10:54 PM,36.0,30.0,79,30.14,10.0,North,8.1,-,N/A,,Overcast,360,2011-11-09 04:54:00
11:54 PM,36.0,30.0,79,30.13,10.0,North,5.8,-,N/A,,Mostly Cloudy,360,2011-11-09 05:54:00